Location: Bonac
(42.8765°N, 0.9753°E)
Time: 05:53:24
(UTC+00:00)

SL-16 R/B - Pass Details

Date: 12 January 2026
Orbit: 984 x 1007 km, 99.8° (Epoch: 10 February)

Event Time Altitude Azimuth Distance (km) Brightness Sun altitude
Rises 17:16:52 0° 10° (N) 3,705 5.2 -6.3°
Reaches altitude 10° 17:19:23 10° 6° (N) 2,751 4.6 -6.7°
Maximum altitude 17:25:21 54° 292° (WNW) 1,184 3.3 -7.7°
Drops below altitude 10° 17:31:18 10° 216° (SW) 2,735 5.8 -8.7°
Sets 17:33:48 0° 212° (SSW) 3,681 6.5 -9.1°
